Regional Weather Roundup
Issued by NWS Sioux Falls, SD

Home | Current Version | Previous Version | Graphics & Text | Print | Product List | Glossary Off
Versions: 1 2 3 4 5 6 7 8 9 10 11 12 13 14 15 16 17 18 19 20 21 22 23 24 25 26 27 28 29 30 31 32 33 34 35 36 37 38 39 40 41 42 43 44 45 46 47 48 49 50

000
ASUS43 KFSD 191302
RWRFSD

WEATHER ROUNDUP FOR SE SOUTH DAKOTA/SW MINNESOTA/NW IOWA
NATIONAL WEATHER SERVICE SIOUX FALLS SD
800 AM CDT SUN APR 19 2015

NOTE: "FAIR" INDICATES FEW OR NO CLOUDS BELOW 12,000 FEET WITH NO
SIGNIFICANT WEATHER AND OR OBSTRUCTIONS TO VISIBILITY.


SDZ038>040-050-052>070-191400-
SOUTHEAST SOUTH DAKOTA

CITY           SKY/WX    TMP DP  RH WIND       PRES   REMARKS
BROOKINGS      CLOUDY    48  46  93 NW16G23   29.76R
CHAMBERLAIN    NOT AVBL
HURON          CLOUDY    46  42  86 NW21G30   29.83R
MADISON        CLOUDY    48  48 100 N20       29.77R
MITCHELL       CLOUDY    48  44  86 NW18G28   29.83S
SIOUX FALLS    CLOUDY    50  48  93 NW18G25   29.75R
WINNER         FAIR      45  36  70 NW17G30   29.94R
YANKTON        CLOUDY    48  45  87 NW21G30   29.78S
$$

MNZ071-072-080-081-089-090-097-098-191400-
SOUTHWEST MINNESOTA

CITY           SKY/WX    TMP DP  RH WIND       PRES   REMARKS
FAIRMONT       CLOUDY    54  45  71 S8        29.71S VSB 1/4
JACKSON        CLOUDY    54  52  94 SW7       29.72F FOG
LUVERNE        CLOUDY    54  50  87 NW13      29.74R FOG
MARSHALL       CLOUDY    52  45  76 NW16G25   29.72R
MONTEVIDEO     CLOUDY    52  52 100 N12G18    29.71R
PIPESTONE      CLOUDY    52  48  87 NW16G23   29.72S FOG
REDWOOD FALLS  CLOUDY    56  54  93 SW10      29.68S FOG
TRACY          PTSUNNY   56  54  92 W15G21    29.71R
WORTHINGTON    CLOUDY    55  52  88 W9        29.72S
$$

IAZ001>003-012>014-020>022-031-032-NEZ013-014-SDZ071-191400-
NORTHWEST IOWA

CITY           SKY/WX    TMP DP  RH WIND       PRES   REMARKS
DENISON        FOG       54  54 100 NW5       29.70F VSB<1/4
ESTHERVILLE    CLOUDY    53  53 100 S8        29.71F
SIOUX CITY     CLOUDY    53  49  86 NW20      29.74R
SPENCER        CLOUDY    55  53  93 S8        29.72F FOG
$$

ABBREVIATIONS USED IN REMARKS
   TC - TEMPERATURE IN CELSIUS
  WCI - WIND CHILL INDEX
   HX - HEAT INDEX
  VSB - VISIBILITY



USA.gov is the U.S. government's official web portal to all federal, state and local government web resources and services.